Frying Pan Shoals, NC (41013)

Conditions for Die Solis

Daily
Weekly
Monthly
Marine Data Graph

Current Weather/Wave Observations

Air Temperature: 79° F
Humidity: 84
Wind direction (W Dir): Inter Aquilonem et Zephyrus (315 - 324 Degrees)
Wind Speed (W Spd): 5.8 kts (6.7 mph)
Wind Gust (W Spd): 7.8 kts (8.9 mph)
Atmospheric Pressure (AP): 30.06 in

Updated: 09:40 PM EDT die 25o June, anno 2017

Marine & Boating Location Search

Enter a coastal zip code for marine weather.

General Information

Location: 33.436 North -77.743 West
Buoy Type: 2.3-meter foam discus buoy
Buoy Hull: 2.3D01
Payload: SCOOP payload
Owned by: NDBC
Windspeed: Measured by obtained from anemometer
Sea Surface: Measured by Intake
Note: Right whales are active off NC from November to April. Speed restrictions of 10 knots apply to vessels 65 feet or greater in specific areas and times along the mid-Atlantic coast. To learn more about right whales and rules protecting them, go to: http://www.nmfs.noaa.gov/pr/shipstrike/

Weather and Wave Data

Time Temp Humidity Wind Dominant Wave Wind Wave Wave Swell Pressure
  Air
(°F)
Water
(°F)
  Dir Speed
(kts)
Speed
(mph)
Period
(sec)
Height
(ft)
Range
(ft)
Period
(sec)
Height
(ft)
Range
(ft)
Period
(sec)
Height
(ft)
Range
(ft)
Atmo.
(in)
Tend.
(in)
20:20 81 81 89 Magis Auster quam Zephyrus 21.4 24.6 - - - - - - 29.99 -
20:30 81 81 88 Magis Auster quam Zephyrus 21.4 24.6 - - - - - - 29.99 -
20:40 81 81 89 Magis Auster quam Zephyrus 19.4 22.4 - - - - - - 29.99 -
20:50 81 81 90 Magis Auster quam Zephyrus 19.4 22.4 5 4.92 exactly 4.9 5 4.92 4.10 - 5.74 9 1.64 0.82 - 2.46 29.99 -
21:10 81 81 90 Magis Auster quam Zephyrus 19.4 22.4 - - - - - - 29.99 -
21:20 81 81 90 Magis Auster quam Zephyrus 17.5 20.1 - - - - - - 29.99 -
21:30 81 81 90 Magis Auster quam Zephyrus 19.4 22.4 - - - - - - 30.00 -
21:40 81 81 90 Magis Auster quam Zephyrus 19.4 22.4 - - - - - - 30.01 -
21:50 81
-
Magis Auster quam Zephyrus 19.4 22.4 6 4.59 exactly 4.6 6 4.92 4.10 - 5.74 10 1.64 0.82 - 2.46 30.01 -
22:10 82 81 86 Magis Auster quam Zephyrus 19.4 22.4 - - - - - - 30.01 -
22:20 82 81 85 Magis Auster quam Zephyrus 19.4 22.4 - - - - - - 30.02 -
22:30 82 81 85 Magis Auster quam Zephyrus 19.4 22.4 - - - - - - 30.02 -
22:40 82 81 85 Magis Auster quam Zephyrus 19.4 22.4 - - - - - - 30.02 -
22:50 82 81 86 Magis Auster quam Zephyrus 19.4 22.4 6 4.92 exactly 4.9 6 4.92 4.10 - 5.74 9 1.64 0.82 - 2.46 30.02 -
23:10 82 81 86 Magis Auster quam Zephyrus 17.5 20.1 - - - - - - 30.03 -
23:20 82 81 86 Magis Auster quam Zephyrus 17.5 20.1 - - - - - - 30.03 -
23:30 82 81 85 Magis Auster quam Zephyrus 17.5 20.1 - - - - - - 30.04 -
23:40 82 81 85 Inter Austrum et Zephyrum 15.6 17.9 - - - - - - 30.04 -
23:50 82 81 86 Inter Austrum et Zephyrum 15.6 17.9 6 4.59 exactly 4.6 6 4.92 4.10 - 5.74 9 1.64 0.82 - 2.46 30.05 -
00:10 82
-
87 Inter Austrum et Zephyrum 15.6 17.9 - - - - - - 30.05 -
00:20 82 81 87 Inter Austrum et Zephyrum 15.6 17.9 - - - - - - 30.05 -
00:30 82 81 87 Inter Austrum et Zephyrum 15.6 17.9 - - - - - - 30.05 -
00:40 81 81 91 Inter Austrum et Zephyrum 15.6 17.9 - - - - - - 30.05 -
01:10 81 80 90 Magis Zephyrus quam Auster 13.6 15.7 - - - - - - 30.05 -
01:20 81 80 90 Magis Zephyrus quam Auster 13.6 15.7 - - - - - - 30.05 -
01:30 80 80 92 Magis Zephyrus quam Auster 13.6 15.7 - - - - - - 30.05 -
01:40 80 80 92 Magis Zephyrus quam Auster 13.6 15.7 - - - - - - 30.04 -
01:50 80 80 91 Magis Zephyrus quam Auster 13.6 15.7 6 4.59 exactly 4.6 6 3.28 2.46 - 4.10 7 3.28 2.46 - 4.10 30.04 -
02:10 80 80 91 Magis Zephyrus quam Auster 13.6 15.7 - - - - - - 30.04 -
02:30 80 80 91 Magis Zephyrus quam Auster 13.6 15.7 - - - - - - 30.03 -
02:50 80 80 89 Magis Zephyrus quam Auster 13.6 15.7 6 4.92 exactly 4.9 6 4.92 4.10 - 5.74 8 1.64 0.82 - 2.46 30.02 -
03:10 80 80 88 Inter Austrum et Zephyrum 13.6 15.7 - - - - - - 30.03 -
03:20 80 80 85 Inter Austrum et Zephyrum 13.6 15.7 - - - - - - 30.03 -
03:30 80 80 85 Inter Austrum et Zephyrum 13.6 15.7 - - - - - - 30.03 -
03:40 80 80 86 Magis Zephyrus quam Auster 13.6 15.7 - - - - - - 30.03 -
03:50 80 80 86 Inter Austrum et Zephyrum 13.6 15.7 6 4.92 exactly 4.9 6 4.92 4.10 - 5.74 8 1.64 0.82 - 2.46 30.03 -
04:00 80 80 86 Inter Austrum et Zephyrum 15.6 17.9 - - - - - - 30.03 -0.03
04:20 80 80 86 Inter Austrum et Zephyrum 15.6 17.9 - - - - - - 30.02 -
04:30 80 80 87 Inter Austrum et Zephyrum 15.6 17.9 - - - - - - 30.02 -
04:40 80 80 86 Inter Austrum et Zephyrum 17.5 20.1 - - - - - - 30.02 -
04:50 80 80 86 Inter Austrum et Zephyrum 15.6 17.9 6 4.59 exactly 4.6 6 4.92 4.10 - 5.74 - - - 30.02 -
05:10 80 80 89 Inter Austrum et Zephyrum 15.6 17.9 - - - - - - 30.02 -
05:30 80 80 90 Inter Austrum et Zephyrum 15.6 17.9 - - - - - - 30.03 -
05:40 80 80 91 Inter Austrum et Zephyrum 13.6 15.7 - - - - - - 30.03 -
05:50 80 80 91 Inter Austrum et Zephyrum 15.6 17.9 5 4.59 exactly 4.6 5 4.92 4.10 - 5.74 8 1.64 0.82 - 2.46 30.03 -
06:00 80 80 91 Inter Austrum et Zephyrum 15.6 17.9 - - - - - - 30.03 -
06:10 80 80 91 Inter Austrum et Zephyrum 13.6 15.7 - - - - - - 30.03 -
06:20 80 80 91 Inter Austrum et Zephyrum 15.6 17.9 - - - - - - 30.03 -
06:40 80 80 91 Inter Austrum et Zephyrum 15.6 17.9 - - - - - - 30.03 -
06:50 80 80 91 Inter Austrum et Zephyrum 15.6 17.9 6 4.92 exactly 4.9 6 4.92 4.10 - 5.74 9 1.64 0.82 - 2.46 30.03 -
07:00 80 80 91 Inter Austrum et Zephyrum 17.5 20.1 - - - - - - 30.03 -
07:10 80 80 91 Inter Austrum et Zephyrum 17.5 20.1 - - - - - - 30.03 -
07:20 80 80 91 Inter Austrum et Zephyrum 15.6 17.9 - - - - - - 30.04 -
07:30 80 80 91 Inter Austrum et Zephyrum 15.6 17.9 - - - - - - 30.04 -
07:40 80 80 91 Inter Austrum et Zephyrum 15.6 17.9 - - - - - - 30.04 -
07:50 80 80 91 Inter Austrum et Zephyrum 13.6 15.7 6 4.59 exactly 4.6 6 4.92 4.10 - 5.74 8 1.64 0.82 - 2.46 30.04 -
08:00 80 80 91 Inter Austrum et Zephyrum 13.6 15.7 - - - - - - 30.05 +0.03
08:20 80 80 92 Inter Austrum et Zephyrum 13.6 15.7 - - - - - - 30.05 -
08:30 80 80 91 Inter Austrum et Zephyrum 13.6 15.7 - - - - - - 30.05 -
08:40 80 80 92 Inter Austrum et Zephyrum 13.6 15.7 - - - - - - 30.05 -
08:50 80 80 93 Inter Austrum et Zephyrum 11.7 13.4 6 4.27 exactly 4.3 6 3.28 2.46 - 4.10 9 1.64 0.82 - 2.46 30.05 -
09:10 80 80 93 Inter Austrum et Zephyrum 13.6 15.7 - - - - - - 30.05 -
09:30 81 80 88 Inter Austrum et Zephyrum 15.6 17.9 - - - - - - 30.05 -
09:40 81 80 88 Inter Austrum et Zephyrum 15.6 17.9 - - - - - - 30.05 -
09:50 81 80 88 Inter Austrum et Zephyrum 15.6 17.9 6 4.27 exactly 4.3 6 4.92 4.10 - 5.74 8 1.64 0.82 - 2.46 30.05 -
10:10 81 80 88 Inter Austrum et Zephyrum 15.6 17.9 - - - - - - 30.05 -
10:30 81 80 88 Inter Austrum et Zephyrum 13.6 15.7 - - - - - - 30.06 -
10:40 81 80 88 Inter Austrum et Zephyrum 15.6 17.9 - - - - - - 30.06 -
10:50 81 80 88 Inter Austrum et Zephyrum 15.6 17.9 6 4.27 exactly 4.3 6 3.28 2.46 - 4.10 8 1.64 0.82 - 2.46 30.06 -
11:10 80 80 92 Inter Austrum et Zephyrum 15.6 17.9 - - - - - - 30.06 -
11:20 80 80 92 Magis Zephyrus quam Auster 13.6 15.7 - - - - - - 30.06 -
11:30 80 80 92 Magis Zephyrus quam Auster 15.6 17.9 - - - - - - 30.07 -
11:40 80 80 92 Magis Zephyrus quam Auster 15.6 17.9 - - - - - - 30.07 -
11:50 80 80 92 Magis Zephyrus quam Auster 15.6 17.9 6 3.94 exactly 3.9 6 3.28 2.46 - 4.10 9 1.64 0.82 - 2.46 30.07 -
12:00 80 80 92 Magis Zephyrus quam Auster 13.6 15.7 - - - - - - 30.07 +0.01
12:10 80 80 91 Magis Zephyrus quam Auster 13.6 15.7 - - - - - - 30.07 -
12:20 80 80 88 Magis Zephyrus quam Auster 11.7 13.4 - - - - - - 30.06 -
12:30 80 80 89 Magis Zephyrus quam Auster 11.7 13.4 - - - - - - 30.06 -
12:40 80 80 90 Magis Zephyrus quam Auster 11.7 13.4 - - - - - - 30.06 -
12:50 80 80 90 Magis Zephyrus quam Auster 11.7 13.4 6 3.94 exactly 3.9 5 3.28 2.46 - 4.10 6 3.28 2.46 - 4.10 30.06 -
13:10 80 80 88 Magis Zephyrus quam Auster 11.7 13.4 - - - - - - 30.06 -
13:20 80 80 88 Magis Zephyrus quam Auster 11.7 13.4 - - - - - - 30.06 -
13:30 80 80 86 Magis Zephyrus quam Auster 11.7 13.4 - - - - - - 30.05 -
13:40 80 80 87 Inter Austrum et Zephyrum 11.7 13.4 - - - - - - 30.05 -
13:50 80 80 87 Inter Austrum et Zephyrum 11.7 13.4 6 3.94 exactly 3.9 5 3.28 2.46 - 4.10 6 3.28 2.46 - 4.10 30.05 -
14:00 80 80 87 Inter Austrum et Zephyrum 11.7 13.4 - - - - - - 30.05 -0.01
14:10 80 80 87 Inter Austrum et Zephyrum 11.7 13.4 - - - - - - 30.04 -
14:20 80 80 87 Magis Zephyrus quam Auster 11.7 13.4 - - - - - - 30.04 -
14:30 80 80 86 Magis Zephyrus quam Auster 11.7 13.4 - - - - - - 30.04 -
14:40 81 80 83 Magis Zephyrus quam Auster 11.7 13.4 - - - - - - 30.04 -
14:50 81 80 84 Magis Zephyrus quam Auster 9.7 11.2 6 3.61 exactly 3.6 5 3.28 2.46 - 4.10 6 3.28 2.46 - 4.10 30.04 -
15:10 81 80 83 Magis Zephyrus quam Auster 9.7 11.2 - - - - - - 30.04 -
15:20 81 80 83 Magis Zephyrus quam Auster 9.7 11.2 - - - - - - 30.04 -
15:30 81 80 84 Inter Austrum et Zephyrum 9.7 11.2 - - - - - - 30.04 -
15:40 81 80 84 Inter Austrum et Zephyrum 9.7 11.2 - - - - - - 30.03 -
15:50 81 81 83 Inter Austrum et Zephyrum 11.7 13.4 6 3.94 exactly 3.9 5 1.64 0.82 - 2.46 6 3.28 2.46 - 4.10 30.03 -
16:10 81 81 85 Magis Zephyrus quam Auster 9.7 11.2 - - - - - - 30.03 -
16:20 81 81 86 Magis Zephyrus quam Auster 9.7 11.2 - - - - - - 30.03 -
16:30 81 81 87 Magis Zephyrus quam Auster 9.7 11.2 - - - - - - 30.03 -
16:40 81 81 86 Magis Zephyrus quam Auster 9.7 11.2 - - - - - - 30.04 -
16:50 81 81 86 Magis Zephyrus quam Auster 9.7 11.2 6 3.61 exactly 3.6 4 1.64 0.82 - 2.46 6 3.28 2.46 - 4.10 30.04 -
17:10 81 81 84 Magis Zephyrus quam Auster 9.7 11.2 - - - - - - 30.04 -
17:20 81 81 85 Magis Zephyrus quam Auster 9.7 11.2 - - - - - - 30.04 -
17:30 81 81 85 Magis Zephyrus quam Auster 9.7 11.2 - - - - - - 30.04 -
17:40 81 81 85 Zephyrus 9.7 11.2 - - - - - - 30.04 -
17:50 81 81 86 Zephyrus 9.7 11.2 6 3.94 exactly 3.9 4 1.64 0.82 - 2.46 6 3.28 2.46 - 4.10 30.04 -
18:10 81 81 85 Zephyrus 7.8 8.9 - - - - - - 30.04 -
18:20 80 81 84 Magis Zephyrus quam Auster 9.7 11.2 - - - - - - 30.04 -
18:30 81 81 84 Zephyrus 9.7 11.2 - - - - - - 30.04 -
18:50 81 81 88 Zephyrus 11.7 13.4 6 3.61 exactly 3.6 4 1.64 0.82 - 2.46 6 3.28 2.46 - 4.10 30.04 -
19:00 81
-
88 Zephyrus 11.7 13.4 - - - - - - 30.04 +0.01
19:20 80 81 88 Zephyrus 7.8 8.9 - - - - - - 30.04 -
19:30 81 81 86 Zephyrus 9.7 11.2 - - - - - - 30.04 -
19:40 80 81 89 Zephyrus 7.8 8.9 - - - - - - 30.04 -
19:50 80 81 83 Magis Zephyrus quam Aquilo 5.8 6.7 6 3.28 exactly 3.3 4 1.64 0.82 - 2.46 6 3.28 2.46 - 4.10 30.04 -
20:10 80 81 83 Inter Aquilonem et Zephyrus 5.8 6.7 - - - - - - 30.04 -
20:20 80 81 81 Magis Zephyrus quam Aquilo 5.8 6.7 - - - - - - 30.06 -
20:30 80 81 80 Zephyrus 7.8 8.9 - - - - - - 30.07 -
20:40 80 81 80 Magis Zephyrus quam Aquilo 7.8 8.9 - - - - - - 30.06 -
20:50 80 81 82 Magis Zephyrus quam Aquilo 9.7 11.2 6 2.95 exactly 3.0 4 1.64 0.82 - 2.46 6 3.28 2.46 - 4.10 30.06 -
21:10 79 81 85 Magis Zephyrus quam Aquilo 9.7 11.2 - - - - - - 30.06 -
21:20 79 81 84 Inter Aquilonem et Zephyrus 7.8 8.9 - - - - - - 30.06 -
21:30 79 81 85 Inter Aquilonem et Zephyrus 5.8 6.7 - - - - - - 30.06 -
21:40 79 81 84 Inter Aquilonem et Zephyrus 5.8 6.7 - - - - - - 30.06 -

Detailed Wave Spectra

Time Water Depth Wave Height Spectral Peak Period Average Wave Period Sampling Interval Wave Record
20:00 79 ft 5.18 ft 5.9 sec 4.5 sec 0.6 sec 2400 sec
21:00 79 ft 4.99 ft 5.3 sec 4.5 sec 0.6 sec 2400 sec
23:00 79 ft 4.92 ft 5.9 sec 4.7 sec 0.6 sec 2400 sec
01:00 79 ft 4.69 ft 6.3 sec 5.0 sec 0.6 sec 2400 sec
02:00 79 ft 4.59 ft 6.3 sec 5.1 sec 0.6 sec 2400 sec
03:00 79 ft 4.76 ft 5.9 sec 5.0 sec 0.6 sec 2400 sec
05:00 79 ft 4.69 ft 5.9 sec 4.7 sec 0.6 sec 2400 sec
09:00 79 ft 4.40 ft 5.6 sec 4.6 sec 0.6 sec 2400 sec
10:00 79 ft 4.40 ft 5.6 sec 4.6 sec 0.6 sec 2400 sec
11:00 79 ft 4.13 ft 5.6 sec 4.6 sec 0.6 sec 2400 sec
13:00 79 ft 3.87 ft 5.9 sec 4.6 sec 0.6 sec 2400 sec
15:00 79 ft 3.64 ft 6.3 sec 4.8 sec 0.6 sec 2400 sec
16:00 79 ft 4.07 ft 5.6 sec 4.9 sec 0.6 sec 2400 sec
17:00 79 ft 3.64 ft 5.9 sec 4.7 sec 0.6 sec 2400 sec
18:00 79 ft 3.87 ft 5.9 sec 4.8 sec 0.6 sec 2400 sec
20:00 79 ft 3.22 ft 5.9 sec 4.5 sec 0.6 sec 2400 sec
21:00 79 ft 3.05 ft 5.6 sec 4.5 sec 0.6 sec 2400 sec